STARLINK-1577 (46063 NORAD) Tracking and Keplerian Element Data

This shows tracking and keplerian element data for the satellite.

Feedback or suggestion? Click here.




ElementValue
Catalog46063
NameSTARLINK-1577
Epoch Orbit1903
Epoch Day336.68056288
Epoch Year2020
RAAN113.8052
Inclination53.0233
Eccentricity0.0001444
Argument of Perigee128.6231
Mean Anonmoly231.4887
Mean Motion15.06392714
Decay Rate0.00011575
L11 46063U 20055AN 20336.68056288 .00011575 00000-0 79485-3 0 9993
L22 46063 53.0233 113.8052 0001444 128.6231 231.4887 15.06392714 19037

Live tracking and technical data element details for STARLINK-1577 (NORAD 46063). STARLINK-1577 can be tracked NOW for your location showing map with azimuth and elevation plus other details from your city location.

Track the satellite on the map from your city or location and see movement details for azimuth, elevation, latitude, longitude, range, height, and movement on the map or in text.







IsCatalogInMostPopularTable: catalog: 46063, numindb: 27
Update: records affected: 1



GetName: 46063 STARLINK-1577

Hit Count: updated at: Thu, 03 Dec 2020 07:55:27 GMT